Weather History for Jackson, WY

Change the Weather History Date:

Tuesday, January 22, 2013

  Actual Average Record
Temperature  
Mean Temperature 6 °F -  
Max Temperature 19 °F 26 °F 38 °F (1970)
Min Temperature -7 °F 0 °F -38 °F (1962)
Degree Days  
Heating Degree Days 59    
Moisture  
Dew Point -2 °F    
Average Humidity 90    
Maximum Humidity 100    
Minimum Humidity 68    
Precipitation  
Precipitation 0.00 in - - ()
Sea Level Pressure  
Sea Level Pressure 30.31 in    
Wind  
Wind Speed 5 mph (NNE)    
Max Wind Speed 12 mph    
Max Gust Speed -    
Visibility 10 miles    
Events      
Averages and records for this station are not official NWS values.
T = Trace of Precipitation, MM = Missing Value Source: NWS Daily Summary

Daily Weather History Graph

Daily Weather History Graph

Search for Another Location

Airport:

Trip Planner

Search our weather history database for the weather conditions in past years. The results will help you decide how hot, cold, wet, or windy it might be!

Date:

Astronomy

Jan. 22, 2013 Rise Set
Actual Time 7:48 AM MST 5:21 PM MST
Civil Twilight 7:17 AM MST 5:52 PM MST
Nautical Twilight 6:42 AM MST 6:27 PM MST
Astronomical Twilight 6:08 AM MST 7:01 PM MST
Moon 1:45 PM MST (1/22) 4:14 AM MST (1/22)
Length of Visible Light 10h 35m
Length of Day
9h 32m
Waxing Gibbous, 83% of the Moon is Illuminated
Jan 22
Waxing Gibbous
Jan 26
Full
Feb 3
Last Quarter
Feb 10
New
Feb 17
First Quarter

Hourly Weather History & Observations

Time (MST) Temp. Windchill Dew Point Humidity Pressure Visibility Wind Dir Wind Speed Gust Speed Precip Events Conditions
12:15 AM 3.2 °F -9.1 °F 1.4 °F 92% 30.29 in 10.0 mi NE 6.9 mph - N/A   Clear
12:35 AM 5.0 °F -2.1 °F 3.2 °F 92% 30.29 in 10.0 mi NNE 3.5 mph - N/A   Clear
12:55 AM 1.4 °F -11.3 °F 1.4 °F 100% 30.29 in 10.0 mi North 6.9 mph - N/A   Clear
1:15 AM -2.2 °F -19.9 °F -4.0 °F 92% 30.29 in 10.0 mi North 11.5 mph - N/A   Clear
1:55 AM -0.4 °F -12.0 °F -0.4 °F 100% 30.30 in 10.0 mi NNE 5.8 mph - N/A   Clear
2:15 AM -0.4 °F -10.4 °F -2.2 °F 92% 30.31 in 10.0 mi NE 4.6 mph - N/A   Clear
2:35 AM -0.4 °F - -0.4 °F 100% 30.32 in 10.0 mi Calm Calm - N/A   Clear
2:55 AM 1.4 °F -9.9 °F -0.4 °F 92% 30.32 in 10.0 mi North 5.8 mph - N/A   Clear
3:15 AM -2.2 °F -14.2 °F -5.8 °F 85% 30.32 in 10.0 mi North 5.8 mph - N/A   Clear
3:55 AM -5.8 °F -21.2 °F -7.6 °F 92% 30.31 in 10.0 mi North 8.1 mph - N/A   Clear
4:15 AM -7.6 °F -24.6 °F -9.4 °F 92% 30.30 in 10.0 mi North 9.2 mph - N/A   Clear
4:35 AM -7.6 °F -22.1 °F -9.4 °F 92% 30.30 in 10.0 mi North 6.9 mph - N/A   Clear
4:55 AM -5.8 °F -16.7 °F -7.6 °F 92% 30.30 in 10.0 mi NE 4.6 mph - N/A   Clear
5:15 AM -7.6 °F -16.5 °F -7.6 °F 100% 30.30 in 10.0 mi NNE 3.5 mph - N/A   Clear
5:35 AM -5.8 °F -18.4 °F -7.6 °F 92% 30.30 in 10.0 mi NNE 5.8 mph - N/A   Clear
5:55 AM -7.6 °F -18.8 °F -9.4 °F 92% 30.31 in 10.0 mi NNE 4.6 mph - N/A   Clear
6:15 AM -5.8 °F -21.2 °F -7.6 °F 92% 30.31 in 10.0 mi NNE 8.1 mph - N/A   Clear
6:36 AM -5.8 °F -23.4 °F -7.6 °F 92% 30.31 in 10.0 mi North 10.4 mph - N/A   Clear
6:51 AM -4.0 °F - -5.8 °F 92% 30.31 in 10.0 mi Calm Calm - N/A   Clear
7:53 AM -7.6 °F -18.8 °F -11.2 °F 84% 30.32 in 10.0 mi North 4.6 mph - N/A   Clear
8:51 AM -5.8 °F -16.7 °F -7.6 °F 92% 30.34 in 10.0 mi North 4.6 mph - N/A   Clear
9:58 AM -0.4 °F - -2.2 °F 92% 30.35 in 10.0 mi Calm Calm - N/A   Clear
10:51 AM 6.8 °F - 1.4 °F 79% 30.36 in 10.0 mi Calm Calm - N/A   Clear
11:51 AM 8.6 °F - 3.2 °F 79% 30.35 in 10.0 mi Calm Calm - N/A   Clear
12:52 PM 14.0 °F - 6.8 °F 73% 30.32 in 10.0 mi Calm Calm - N/A   Clear
1:56 PM 15.8 °F - 8.6 °F 73% 30.32 in 10.0 mi Calm Calm - N/A   Clear
2:51 PM 19.4 °F - 10.4 °F 68% 30.30 in 10.0 mi Calm Calm - N/A   Clear
3:51 PM 15.8 °F 10.2 °F 10.4 °F 79% 30.29 in 10.0 mi SE 3.5 mph - N/A   Clear
4:51 PM 12.2 °F - 8.6 °F 85% 30.28 in 10.0 mi Calm Calm - N/A   Clear
5:51 PM 8.6 °F - 6.8 °F 92% 30.28 in 10.0 mi Calm Calm - N/A   Clear
6:51 PM 5.0 °F - 3.2 °F 92% 30.28 in 10.0 mi Calm Calm - N/A   Clear
7:54 PM 8.6 °F -2.6 °F 6.8 °F 92% 30.28 in 10.0 mi NNE 6.9 mph - N/A   Clear
8:51 PM -2.2 °F -18.9 °F -2.2 °F 100% 30.29 in 10.0 mi North 10.4 mph - N/A   Clear
8:55 PM -0.4 °F -15.7 °F -2.2 °F 92% 30.29 in 10.0 mi North 9.2 mph - N/A   Clear
9:15 PM -0.4 °F -15.7 °F -2.2 °F 92% 30.30 in 10.0 mi North 9.2 mph - N/A   Clear
9:35 PM -0.4 °F -12.0 °F -0.4 °F 100% 30.30 in 10.0 mi NNE 5.8 mph - N/A   Clear
10:15 PM -0.4 °F -12.0 °F -2.2 °F 92% 30.30 in 10.0 mi North 5.8 mph - N/A   Clear
10:35 PM -2.2 °F -12.5 °F -4.0 °F 92% 30.30 in 10.0 mi NNE 4.6 mph - N/A   Clear
10:55 PM -2.2 °F -12.5 °F -5.8 °F 85% 30.30 in 10.0 mi NNE 4.6 mph - N/A   Clear
11:15 PM -0.4 °F -15.7 °F -2.2 °F 92% 30.30 in 10.0 mi North 9.2 mph - N/A   Clear
11:35 PM -0.4 °F -16.7 °F -2.2 °F 92% 30.31 in 10.0 mi North 10.4 mph - N/A   Clear
11:56 PM -0.4 °F -16.7 °F -2.2 °F 92% 30.30 in 10.0 mi North 10.4 mph - N/A   Clear